Showing default

TEN-KOH, 43677

Orbit data source: Space-Track

TEN-KOH, 43677 is a payload satellite owned by Kyutech (JP) in SSO that was launched on Mon, 29 Oct 2018 UTC via an H-IIA 202 launch vehicle from the Tanegashima Space Center (TNSTA). Payload-class satellites include a variety of spacecraft equipped with specific instruments for various scientific and technological missions. These include communications satellites like Starlink; space stations such as the ISS; scientific satellites like the Hubble; Earth observation satellites from companies like Planet Labs, Umbra, and HawkEye 360; GPS; miniature CubeSats for education and research; and military/defense satellites.

Loading next visibility...
Identifier
43677, 2018-084G
Orbit
SSO
Country
Flag of JPJP / JPN
Related business
Manufacturer
Kyutech
Mission
Operational Amateur Technology
Bus & Motor
SHINEN-2, Unknown motor
Mass
22.3 kg wet, 22.3 kg dry
Launch date (UTC)
2018-10-29 (8 years ago)
Launch vehicle
H-IIA 202
Launch site
Tanegashima Space Center (TNSTA)
Object type
Payload
Rocket body
Debris
Shape & HBR
Polyhedral Cyl, 0.4 m
Radar Cross Section
0.295 m², Medium (>0.1 m² and < 1m²)

Expand to show TLE details & history
Last TLE update: 23 hours ago

TLE from 23 hours ago
0 TEN-KOH
1 43677U 18084G   26262.78631928  .00000737  00000-0  59286-4 0  9991
2 43677  98.0719  99.1525 0009819 153.9496 206.2224 15.03252584430378
Epoch: 2026-09-19T18:52Z
TLE epoch observation values (Epoch: 2026-09-19T18:52:17.985Z)
Latitude
-0.00005°
Longitude
177.38771°
Altitude
566.034 km
Speed
7.575 km/s
True Right ascension
06h 36m 36s
True Declination
0° 00' 00"
Sunlit
Object was in daylight at epoch
Visualization orbit readout
Latitude
Unknown
Longitude
Unknown
Altitude
Unknown
Speed
Unknown
Apparent Right ascension
Unknown
Apparent Declination
Unknown
Sunlit
N/A
Visualization observer readout
Local Sidereal Time
11:10:46
Azimuth
Unknown
Elevation
Unknown
Doppler factor
Unknown
Orbital elements
Apogee altitude
560.699 km
Perigee altitude
547.086 km
Semi-major axis
6,932.029 km
Eccentricity
0.00098
Inclination
98.0719°
RAAN
99.1525°
Arg. of periapsis
153.9496°
True anomaly
206.17274°
Mean anomaly
206.2224°
Eccentric anomaly
206.19756°
Mean motion
3.76056 °/min
Orbital period
95.73 mins
BSTAR
0.000059286
Loading maneuver chart data...
Computing Atmospheric mass density...

Documentation

Showing up to 5 results
|